ATLAS 5 CENTAUR DEB, 44683

Orbit data source: Space-Track

ATLAS 5 CENTAUR DEB, 44683 is space debris in HEO originally from a launch on Wed, 17 Oct 2018 UTC launched from the Air Force Eastern Test Range (AFETR). Debris objects in space refer to the collection of defunct objects orbiting the Earth. Examples of debris include non-operational satellites, rocket bodies, and fragments generated from explosions, collisions, or faulty payload assembly.

Loading next visibility...
Identifier
44683, 2018-079AV
Orbit
HEO
Country
Flag of USUS
Related business
Flag of USUnited Launch Alliance/Lockheed Martin (US)
Manufacturer
ULA Decatur
Mission
Spacecraft
Bus & Motor
Unknown
Mass
Unknown
Launch date (UTC)
2018-10-17 (8 years ago)
Launch vehicle
Unknown
Launch site
Air Force Eastern Test Range (AFETR)
Object type
Payload
Rocket body
Debris
Shape & HBR
Unknown shape, 1.1 m
Radar Cross Section
RCS unknown

Expand to show TLE details & history
Last TLE update: 1 day ago

TLE from 1 day ago
0 ATLAS 5 CENTAUR DEB
1 44683U 18079AV  26124.43244333 -.00000133  00000-0  00000+0 0  9998
2 44683  13.2858  34.7974 4708892 317.6901  14.3800  1.83243104 50527
Epoch: 2026-05-04T10:22Z
TLE epoch observation values (Epoch: 2026-05-04T10:22:43.103Z)
Latitude
-0.00002°
Longitude
16.73857°
Altitude
9,904.553 km
Speed
5.902 km/s
True Right ascension
02h 18m 57s
True Declination
0° 00' 00"
Sunlit
Object was in daylight at epoch
Visualization orbit readout
Latitude
Unknown
Longitude
Unknown
Altitude
Unknown
Speed
Unknown
Apparent Right ascension
Unknown
Apparent Declination
Unknown
Sunlit
N/A
Visualization observer readout
Local Sidereal Time
17:57:05
Azimuth
Unknown
Elevation
Unknown
Doppler factor
Unknown
Orbital elements
Apogee altitude
35,116.873 km
Perigee altitude
8,548.52 km
Semi-major axis
28,210.834 km
Eccentricity
0.47089
Inclination
13.2858°
RAAN
34.7974°
Arg. of periapsis
317.6901°
True anomaly
42.65468°
Mean anomaly
14.38°
Eccentric anomaly
26.3589°
Mean motion
0.45806 °/min
Orbital period
785.93 mins
BSTAR
0
Loading maneuver chart data...
Computing Atmospheric mass density...

Documentation

Showing up to 5 results
|